Location: Newark
(7.0858°N, 171.3717°E)
Time: 03:24:32
(UTC+00:00)

A-11 Canister half - Pass Details

Date: 06 December 2020
Orbit: 1517 x 1683 km, 47.2° (Epoch: 16 January)

Event Time Altitude Azimuth Distance (km) Brightness Sun altitude
Rises 06:27:00 0° 321° (NW) 4,926 11.9 -3.0°
Reaches altitude 10° 06:30:10 10° 323° (NW) 3,938 11.4 -3.7°
Maximum altitude 06:40:21 82° 50° (NE) 1,681 9.2 -6.1°
Drops below altitude 10° 06:50:18 10° 137° (SE) 3,865 10.9 -8.4°
Sets 06:53:23 0° 138° (SE) 4,831 11.4 -9.1°
